Simultaneous Nadir Overpasses (SNOs) Predictions

Prediction of SNOs between AQUA and METOP-A Satellite Orbit:

Table of predicted SNOs for the next 14.0 days since TLE Epoch: 11/29/2014
Index Date (AQUA) Time (AQUA) Lat,Lon (AQUA) SZA (AQUA ) Date (METOP-A) Time (METOP-A) Lat,Lon (METOP-A) SZA (METOP-A ) Distance(km) Time Diff (sec)
1 11/29/2014 15:55:48 -73.77, 115.40 84.77 11/29/2014 15:54:59 -73.78, 115.48 84.77 2.71 49
2 11/29/2014 16:45:16 73.80, -77.02 95.26 11/29/2014 16:45:38 73.80, -77.12 95.27 3.28 22
3 12/02/2014 11:29:57 -73.77,-178.14 84.33 12/02/2014 11:29:21 -73.78,-178.11 84.32 1.04 36
4 12/02/2014 12:19:26 73.85, -10.68 95.76 12/02/2014 12:19:59 73.85, -10.60 95.76 2.41 33
5 12/05/2014 07:04:06 -73.79,-111.71 83.92 12/05/2014 07:03:44 -73.77,-111.73 83.94 2.92 22
6 12/05/2014 07:53:34 73.82, 55.85 96.12 12/05/2014 07:54:22 73.84, 55.77 96.14 2.92 48
7 12/08/2014 01:48:42 73.49, 147.76 96.11 12/08/2014 01:47:31 73.43, 146.58 96.07 38.13 71
8 12/08/2014 02:38:13 -73.78, -45.20 83.60 12/08/2014 02:38:06 -73.79, -45.26 83.58 2.47 7
9 12/08/2014 03:27:42 73.86, 122.24 96.50 12/08/2014 03:28:44 73.86, 122.24 96.49 0.54 62
10 12/10/2014 21:22:52 73.76,-146.33 96.66 12/10/2014 21:21:46 73.74,-146.29 96.65 2.10 66
11 12/10/2014 22:12:19 -73.83, 21.15 83.27 12/10/2014 22:12:27 -73.81, 21.19 83.29 2.79 8




NCC Satellite Simultaneous Nadir Overpasses (SNOs) Prediction Service
